Simultaneous Nadir Overpasses (SNOs) Predictions

Prediction of SNOs between FY3D and AQUA Satellite Orbit:

Table of predicted SNOs for the next 14.0 days since TLE Epoch: 3/27/2021
Index Date (FY3D) Time (FY3D) Lat,Lon (FY3D) SZA (FY3D ) Date (AQUA) Time (AQUA) Lat,Lon (AQUA) SZA (AQUA ) Distance(km) Time Diff (sec)
1 03/29/2021 15:46:29 46.06, -41.90 43.88 03/29/2021 15:47:30 46.15, -41.58 44.10 26.89 61
2 03/29/2021 17:01:43 -46.02, -42.37 57.03 03/29/2021 17:00:48 -46.11, -42.75 56.83 30.55 55
3 04/01/2021 08:02:49 46.06, 74.03 42.93 04/01/2021 08:03:58 46.10, 74.32 43.10 22.60 69
4 04/01/2021 09:18:03 -46.02, 73.56 58.05 04/01/2021 09:17:17 -46.10, 73.13 57.84 34.68 46
5 04/04/2021 00:22:15 56.73,-175.18 51.44 04/04/2021 00:23:28 56.82,-174.65 51.62 33.37 73
6 04/04/2021 01:34:23 -46.02,-170.50 59.06 04/04/2021 01:33:46 -46.08,-171.00 58.83 38.94 37
7 04/06/2021 16:44:05 74.58, -80.94 68.05 04/06/2021 16:45:18 74.85, -79.42 68.23 53.42 73
8 04/06/2021 17:26:11 -46.06, 113.23 138.97 04/06/2021 17:26:19 -46.13, 113.72 138.76 38.90 8
9 04/06/2021 18:18:07 50.05, -81.15 44.46 04/06/2021 18:16:57 50.19, -80.26 44.71 65.10 70
10 04/09/2021 09:05:50 79.15, -59.18 84.87 04/09/2021 09:07:03 79.64, -61.21 85.05 68.55 73
11 04/09/2021 09:42:30 -46.06,-130.84 139.87 04/09/2021 09:42:47 -46.17,-130.41 139.65 34.93 17



Historial Predications of SNOs between FY3D and AQUA
